Regional Weather Roundup
Issued by NWS Albany, NY

Home | Current Version | Previous Version | Graphics & Text | Print | Product List | Glossary Off
Versions: 1 2 3 4 5 6 7 8 9 10 11 12 13 14 15 16 17 18 19 20 21 22 23 24 25 26 27

000
ASUS41 KALY 182110
RWRALY

NEW YORK STATE HOURLY WEATHER ROUNDUP
NATIONAL WEATHER SERVICE ALBANY NY
500 PM EDT FRI AUG 18 2017

NOTE: "FAIR" INDICATES FEW OR NO CLOUDS BELOW 12,000 FEET WITH NO
SIGNIFICANT WEATHER AND/OR NO OBSTRUCTIONS TO VISIBILITY.

NYZ032-033-038>043-046>054-057>066-NYZ062>081-082-084-182200-
EAST


CITY           SKY/WX    TMP DP  RH WIND       PRES   REMARKS
ALBANY         LGT RAIN  75  73  93 S8        29.76F FOG
GLENS FALLS    CLOUDY    76  72  87 S8        29.75F
POUGHKEEPSIE   LGT RAIN  80  73  79 S5        29.76F
NEWBURGH       PTSUNNY   81  75  83 SW8       29.79F
MONTGOMERY     CLOUDY    81  75  82 SW3       29.77F
WHITE PLAINS   PTSUNNY   79  75  87 S8        29.79F
ISLIP          CLOUDY    78  76  93 S13       29.81S
NEW YORK CITY  PTSUNNY   82  77  84 S14       29.77F HX  90
CENTRAL PARK   CLOUDY    80  77  90 VRB6      29.80F
$$

NYZ005>009-017-018-044>046-055-056-182200-
CENTRAL


CITY           SKY/WX    TMP DP  RH WIND       PRES   REMARKS
FULTON         MOSUNNY   83  68  60 S8        29.68F
SYRACUSE       PTSUNNY   86  67  52 SW9       29.68F
ROME           PTSUNNY   86  70  58 SE8       29.71F HX  90
ELMIRA         LGT RAIN  84  70  62 SW8       29.72F
BINGHAMTON     PTSUNNY   77  70  79 S8        29.78F
MONTICELLO     CLOUDY    73  72  94 S12       29.83F FOG
$$

NYZ026>034-041>043-087-182200-
NORTH


CITY           SKY/WX    TMP DP  RH WIND       PRES   REMARKS
WATERTOWN      MOSUNNY   83  67  58 SW7       29.68F
FORT DRUM      NOT AVBL
OGDENSBURG     FAIR      85  65  50 SW13G18   29.66F
MASSENA        MOSUNNY   85  67  54 SW13G21   29.67F
SARANAC LAKE   MOSUNNY   79  65  62 SW9       29.74F
PLATTSBURGH    MOSUNNY   79  71  76 SE18G24   29.68F
$$

NYZ001>004-010>016-019>021-085-182200-
WEST


CITY           SKY/WX    TMP DP  RH WIND       PRES   REMARKS
NIAGARA FALLS  MOSUNNY   80  65  59 SW21G30   29.72S
BUFFALO        PTSUNNY   78  65  63 SW17G28   29.74R
DUNKIRK        LGT RAIN  76  66  71 SW15G25   29.78R
JAMESTOWN      MOSUNNY   76  63  64 W15G22    29.83R
WELLSVILLE     MOSUNNY   82  58  43 W14G20    29.81F
ROCHESTER      PTSUNNY   82  62  50 W20G29    29.72S
PENN YAN       CLOUDY    85  64  49 NW7       29.72F
$$

             KEY
       WCI = WIND CHILL INDEX
       VSB = VISIBILITY
       HX  = HEAT INDEX
$$




USA.gov is the U.S. government's official web portal to all federal, state and local government web resources and services.